User: anonymous   Login
Location: York
(31.8935°S, 116.7682°E)
Time: 08:46:17
(UTC+08:00)
Language:

X-37B - Orbit

View from above orbital plane
View from above orbital plane
View from above satellite
View from above satellite

Ground track
Ground track

The orbit data is extracted from the following two-line orbital elements,

1 45606U 20029A   21174.90992665 0.00000000  00000-0  00000-0 0    08
2 45606  45.0170 176.1912 0002414 131.6629 228.3366 15.60030099    09
Epoch (UTC): 23 June 2021 21:50:17
Eccentricity: 0.0002414
inclination: 45.0170°
perigee height: 386 km
apogee height: 389 km
right ascension of ascending node: 176.1912°
argument of perigee: 131.6629°
revolutions per day: 15.60030099
mean anomaly at epoch: 228.3366°
orbit number at epoch: 0

The dashed part of the orbit path shows where the satellite is in the earth's shadow,  

DLR